Printer-friendly version

IAU Minor Planet Center

Minor Planet Center

MPEC 2006-W63 : 2006 WV3

The following Minor Planet Electronic Circular may be linked-to from your own Web pages, but must not otherwise be redistributed electronically.


Read MPEC 2006-W62 Read MPEC 2006-W64


M.P.E.C. 2006-W63                                Issued 2006 Nov. 22, 21:53 UT

     The Minor Planet Electronic Circulars contain information on unusual
         minor planets and routine data on comets.  They are published
   on behalf of Commission 20 of the International Astronomical Union by the
          Minor Planet Center, Smithsonian Astrophysical Observatory,
                          Cambridge, MA 02138, U.S.A.

             Prepared using the Tamkin Foundation Computer Network

                              MPC@CFA.HARVARD.EDU
          URL http://cfa-www.harvard.edu/iau/mpc.html  ISSN 1523-6714

                                   2006 WV3

Observations:
     K06W03V* C2006 11 21.44061 09 02 57.71 +08 41 57.9          19.9   EW063704
     K06W03V  C2006 11 21.45433 09 03 00.03 +08 42 00.8          19.7   EW063704
     K06W03V  C2006 11 21.46726 09 03 02.10 +08 42 01.9          19.6   EW063704
     K06W03V  C2006 11 21.48017 09 03 04.25 +08 42 04.0          19.3   EW063704
     K06W03V  C2006 11 22.39561 09 05 39.38 +08 44 30.5          19.5 R EW063734
     K06W03V  C2006 11 22.39707 09 05 39.59 +08 44 30.7          19.5 R EW063734
     K06W03V  C2006 11 22.39853 09 05 39.87 +08 44 31.1          19.7 R EW063734
     K06W03V  C2006 11 22.40297 09 05 40.59 +08 44 31.9          19.3 R EW063734
     K06W03V  C2006 11 22.40590 09 05 41.07 +08 44 32.3          19.5 R EW063734
     K06W03V  C2006 11 22.43046 09 05 45.30 +08 44 37.6          19.0   EW063704
     K06W03V  C2006 11 22.44301 09 05 47.40 +08 44 38.6          20.0   EW063704
     K06W03V  C2006 11 22.45556 09 05 49.36 +08 44 42.3          19.7   EW063704
     K06W03V  C2006 11 22.46494 09 05 51.02 +08 44 44.4          19.7 R EW063651
     K06W03V  C2006 11 22.46605 09 05 51.16 +08 44 44.7          19.7 R EW063651
     K06W03V  C2006 11 22.46716 09 05 51.34 +08 44 44.9          19.7 R EW063651
     K06W03V  C2006 11 22.46811 09 05 51.50 +08 44 44.6          19.5   EW063704
     K06W03V  C2006 11 22.48066 09 05 53.58 +08 44 47.1          19.7   EW063704
     K06W03V  C2006 11 22.48260 09 05 53.91 +08 44 46.8          19.4 V EW063G96
     K06W03V  C2006 11 22.48393 09 05 54.13 +08 44 46.9          19.3 V EW063G96
     K06W03V  C2006 11 22.48526 09 05 54.31 +08 44 47.2          19.3 V EW063G96
     K06W03V  C2006 11 22.48654 09 05 54.52 +08 44 47.5          19.2 V EW063G96
     K06W03V  C2006 11 22.49683 09 05 56.14 +08 44 49.6          19.4 V EW063703
     K06W03V  C2006 11 22.49948 09 05 56.72 +08 44 50.3          20.1 V EW063703
     K06W03V  C2006 11 22.50218 09 05 57.12 +08 44 50.7          20.0 V EW063703
     K06W03V  C2006 11 22.50488 09 05 57.58 +08 44 49.8          19.1 V EW063703
     K06W03V  C2006 11 22.50844 09 05 58.15 +08 44 52.0          19.2 V EW063703
     K06W03V  C2006 11 22.50940 09 05 58.34 +08 44 51.5          19.2 V EW063703
     K06W03V  C2006 11 22.51035 09 05 58.48 +08 44 51.2          19.4 V EW063703
     K06W03V  C2006 11 22.51131 09 05 58.59 +08 44 51.7          19.4 V EW063703

Observer details:
651 Grasslands Observatory, Tucson.  Observer J. E. McGaha.  0.62-m f/5.1
    Newtonian reflector + CCD.
703 Catalina Sky Survey.  Observer R. E. Hill.  Measurers E. C. Beshore,
    E. J. Christensen, G. J. Garradd, A. R. Gibbs, A. D. Grauer, R. E. Hill,
    R. A. Kowalski, S. M. Larson, R. H. McNaught.  0.68-m Schmidt + CCD.
704 Lincoln Laboratory ETS, New Mexico.  Observers M. Bezpalko, D. Torres,
    R. Kracke, G. Spitz, J. Kistler.  Measurers J. Stuart, S. Scruggs.  1.0-m
    f/2.15 reflector + CCD.
734 Farpoint Observatory.  Observer G. Hug.  0.7-m reflector + CCD.
G96 Mt. Lemmon Survey.  Observer A. R. Gibbs.  Measurers E. C. Beshore,
    E. J. Christensen, G. J. Garradd, A. R. Gibbs, A. D. Grauer, R. E. Hill,
    R. A. Kowalski, S. M. Larson, R. H. McNaught.  1.5-m reflector + CCD.

Orbital elements:
2006 WV3                                                 Earth MOID = 0.2662 AU
Epoch 2006 Nov. 21.0 TT = JDT 2454060.5                 MPC
M 334.25513              (2000.0)            P               Q
n   0.54410544     Peri.   17.46679     -0.51557307     -0.83109223
a   1.4859836      Node   104.02503     +0.75825186     -0.55585718
e   0.1617449      Incl.   12.40972     +0.39904702     -0.01756443
P   1.81           H   18.3           G   0.15
From 29 observations 2006 Nov. 21-22.  E-assumed.

Ephemeris:
2006 WV3                 a,e,i = 1.49, 0.16, 12                  q = 1.2456
Date    TT    R. A. (2000) Decl.     Delta      r     Elong.  Phase     V
2006 11 21    09 01.71   +08 41.0    0.620    1.279   103.0    48.8    19.6
2006 12 01    09 29.88   +09 19.7    0.561    1.267   106.7    48.2    19.4
2006 12 11    09 57.91   +10 33.4    0.507    1.257   110.8    47.1    19.1
2006 12 21    10 25.49   +12 32.7    0.458    1.250   115.3    45.3    18.8
2006 12 31    10 52.07   +15 27.1    0.416    1.246   120.3    42.9    18.5
2007 01 10    11 16.94   +19 20.6    0.383    1.246   125.6    39.9    18.3
2007 01 20    11 38.88   +24 09.3    0.358    1.248   130.9    36.5    18.0
2007 01 30    11 56.40   +29 34.4    0.343    1.253   135.7    33.3    17.9
2007 02 09    12 08.09   +35 02.4    0.339    1.262   139.0    30.8    17.8
2007 02 19    12 12.75   +39 53.4    0.344    1.273   140.4    29.6    17.8
2007 03 01    12 10.52   +43 27.5    0.359    1.286   139.9    29.8    17.9
2007 03 11    12 03.43   +45 20.4    0.383    1.302   137.7    30.9    18.1
2007 03 21    11 54.69   +45 27.2    0.414    1.320   134.6    32.5    18.4
2007 03 31    11 47.76   +43 58.6    0.452    1.339   130.9    34.3    18.6
2007 04 10    11 44.60   +41 17.3    0.497    1.360   127.0    36.0    18.9
2007 04 20    11 45.66   +37 45.6    0.548    1.381   123.0    37.6    19.2
2007 04 30    11 50.62   +33 42.5    0.605    1.404   119.0    38.9    19.5
2007 05 10    11 58.71   +29 23.1    0.668    1.427   115.0    39.9    19.8
2007 05 20    12 09.24   +24 57.2    0.737    1.450   111.0    40.7    20.0
2007 05 30    12 21.69   +20 31.5    0.812    1.473   107.0    41.1    20.3
2007 06 09    12 35.60   +16 11.1    0.892    1.496   103.1    41.4    20.5
2007 06 19    12 50.69   +11 58.7    0.977    1.518    99.2    41.4    20.8
2007 06 29    13 06.79   +07 56.0    1.067    1.540    95.3    41.1    21.0
2007 07 09    13 23.74   +04 04.7    1.160    1.561    91.4    40.6    21.2
2007 07 19    13 41.47   +00 25.1    1.256    1.581    87.5    40.0    21.4
2007 07 29    13 59.98   -03 02.1    1.355    1.600    83.6    39.1    21.5
2007 08 08    14 19.20   -06 16.4    1.455    1.618    79.7    38.1    21.7
2007 08 18    14 39.17   -09 17.5    1.556    1.635    75.8    36.9    21.8
2007 08 28    14 59.90   -12 04.9    1.657    1.651    71.9    35.6    21.9
2007 09 07    15 21.36   -14 38.1    1.758    1.665    67.9    34.1    22.0

Timothy B. Spahr             (C) Copyright 2006 MPC           M.P.E.C. 2006-W63

Read MPEC 2006-W62 Read MPEC 2006-W64


Our Web policy. Index to the CBAT/MPC/ICQ pages.


Valid HTML 4.01!